450  
ASUS44 KSHV 241910  
RWRSHV  
 
WEATHER ROUNDUP FOR THE FOUR STATE AREA  
NATIONAL WEATHER SERVICE SHREVEPORT LA  
200 PM CDT SUN SEP 24 2017  
 
NOTE: "FAIR" INDICATES FEW OR NO CLOUDS BELOW 12000 FEET  
WITH NO SIGNIFICANT WEATHER AND/OR S TO VISIBILITY
.  
 
!LAZ001-LAZ014-TXZ097-242000  
SHREVEPORT...MONROE...TEXARKANA RADIOS  
 
CITY SKY/WX TMP DP RH WIND PRES REMARKS
 
SHREVEPORT MOSUNNY 90 67 46 SE8 29.93F  
MONROE SUNNY 88 67 49 SE8 29.95F  
NATCHITOCHES PTSUNNY 89 68 50 E8 29.93F  
TEXARKANA SUNNY 89 66 46 VRB6 29.94F  

 
 
!LAZ001-LAZ014-TXZ097-242000  
OTHER LOCATIONS...  
 
CITY SKY/WX TMP DP RH WIND PRES REMARKS
 
DOWNTOWN SHV MOSUNNY 91 68 46 SE9 29.93F  
BOSSIER CITY MOSUNNY 91 68 46 E7 29.93F  
RUSTON PTSUNNY 86 66 51 E3 29.99F  
LITTLE ROCK MOSUNNY 90 68 48 SE8 29.96F  
EL DORADO MOSUNNY 90 67 46 SE3 29.96F  
JACKSON PTSUNNY 89 67 47 NE7 29.96F  
NEW ORLEANS SUNNY 88 70 55 E13G21 29.91F  
HOUSTON MOSUNNY 91 70 49 SE13 29.88F  
LUFKIN MOSUNNY 87 68 52 VRB7 29.92F  
TYLER MOSUNNY 90 62 39 E12 29.92F  
DAL FT WORTH MOSUNNY 90 66 45 S13 29.89F  

 
 
!TXZ136-TXZ165-242000  
TYLER...LUFKIN RADIOS  
 
CITY SKY/WX TMP DP RH WIND PRES REMARKS
 
TYLER MOSUNNY 90 62 39 E12 29.92F  
GILMER PTCLDY 89 67 47 E8 29.93F  
LONGVIEW MOSUNNY 92 67 43 SE8G25 29.92F  
LUFKIN MOSUNNY 87 68 52 VRB7 29.92F  

 
 
!TXZ136-TXZ165-242000  
OTHER LOCATIONS...  
 
CITY SKY/WX TMP DP RH WIND PRES REMARKS
 
NACOGDOCHES MOSUNNY 87 68 52 SE8 29.93F  
BEAUMONT MOSUNNY 89 70 53 E12G18 29.89F  
HOUSTON MOSUNNY 91 70 49 SE13 29.88F  
COLLEGE STN PTSUNNY 90 69 50 E9 29.89F  
AUSTIN MOSUNNY 91 72 53 SE12 29.86F HX 98  
DAL FT WORTH MOSUNNY 90 66 45 S13 29.89F  
TEXARKANA SUNNY 89 66 46 VRB6 29.94F  
SHREVEPORT MOSUNNY 90 67 46 SE8 29.93F  
FORT POLK MOSUNNY 89 67 47 SE7 29.92F  
LAKE CHARLES MOSUNNY 91 70 49 E12 29.90F  

 
 
 
CLICK HERE TO GO TO PREVIOUS BULLETINS.

The Nexlab LA Page
The Nexlab TX Page
The Nexlab AR Page
The Nexlab OK Page Main Text Page